Regional Weather Roundup
Issued by NWS Columbia, SC

Home | Current Version | Previous Version | Text Only | Print | Product List | Glossary On
Versions: 1 2 3 4 5 6 7 8 9 10 11 12 13 14 15 16 17 18 19 20 21 22 23 24 25 26 27 28 29 30 31 32 33 34 35 36 37 38 39 40 41 42 43 44 45 46 47 48 49 50
000
ASUS42 KCAE 231110
RWRCAE
REGIONAL WEATHER ROUNDUP
NATIONAL WEATHER SERVICE COLUMBIA SC
700 AM EDT SAT MAY 23 2015

NOTE: "FAIR" INDICATES FEW OR NO CLOUDS BELOW 12,000 FEET WITH NO
SIGNIFICANT WEATHER AND/OR OBSTRUCTIONS TO VISIBILITY.

NOT ALL STATIONS ARE QUALITY CONTROLLED BY THE NATIONAL
WEATHER SERVICE. USE DATA WITH CAUTION...ESPECIALLY
DEWPOINT OBSERVATIONS.

SCZ001>056-GAZ040-063>065-077-231200-
...UPSTATE SOUTH CAROLINA...

CITY           SKY/WX    TMP DP  RH WIND       PRES   REMARKS
ANDERSON       CLEAR     56  45  66 NE3       30.36R
LIBERTY        SUNNY     47  46  96 CALM      30.37R
SPARTANBURG    CLEAR     54  46  76 CALM      30.38R
CLEMSON        CLEAR     58  43  57 N5        30.38R
GREENVILLE     CLEAR     60  42  51 NE9       30.38R
GREENWOOD      CLEAR     50  47  89 N3        30.37R
GREER          CLEAR     55  45  68 NE3       30.37R
ROCK HILL      CLEAR     49  48  97 CALM      30.38R FOG
CHESTER        SUNNY     55  45  67 N3        30.39R
LAURENS        SUNNY     46  46 100 N3        30.37R


...CENTRAL SOUTH CAROLINA...

CITY           SKY/WX    TMP DP  RH WIND       PRES   REMARKS
COLUMBIA APT   CLEAR     52  48  86 CALM      30.35R
COLUMBIA OWENS CLEAR     56  49  77 CALM      30.37R
DARLINGTON     CLEAR     54  46  76 N5        30.37R
FLORENCE       CLEAR     53  50  89 CALM      30.35R
MCENTIRE ANGB  CLEAR     50  47  90 NW3       30.35R
ORANGEBURG     CLEAR     55  53  93 CALM      30.34R
SUMTER SHAW    CLEAR     56  49  79 SE2       30.34
NEWBERRY       SUNNY     48  46  93 N6        30.39R
AIKEN          FAIR      52  45  76 CALM      30.38R
BARNWELL       FAIR      55  54  94 CALM      30.35R
MANNING        FAIR      52  45  76 CALM      30.34R HAZE
CAMDEN         FAIR      52  46  82 CALM      30.36R
LANCASTER      SUNNY     48  48 100 CALM      30.37R
WINNSBORO      SUNNY     55  48  76 CALM      30.36R


...EASTERN AND COASTAL SOUTH CAROLINA...

CITY           SKY/WX    TMP DP  RH WIND       PRES   REMARKS
MYRTLE BEACH   CLEAR     61  55  82 N6        30.35R
N MYRTLE BCH   CLEAR     57  55  93 NE3       30.34R
CONWAY         FAIR      52  52 100 CALM      30.35R
MARION         FAIR      52  52 100 CALM      30.35R
HARTSVILLE     FAIR      50  46  87 CALM      30.35R
FLORENCE       CLEAR     53  50  89 CALM      30.35R
DARLINGTON     CLEAR     54  46  76 N5        30.37R
CHARLESTON APT PTCLDY    61  58  90 NE6       30.32R
MOUNT PLEASANT LGT RAIN  61  59  94 N3        30.32R
WALTERBORO     SUNNY     59  57  94 NE3       30.34R
BEAUFORT       CLEAR     64  61  90 NE3       30.32R


...EASTERN GEORGIA...

CITY           SKY/WX    TMP DP  RH WIND       PRES   REMARKS
AUGUSTA BUSH F CLEAR     51  50  96 CALM      30.34R
AUGUSTA DANIEL CLEAR     62  50  64 E6        30.34R
THOMSON        CLEAR     51  51 100 CALM      30.39R
WASHINGTON     FAIR      55  55 100 CALM      30.34R
CLAXTON        FAIR      55  55 100 CALM      30.31R
SYLVANIA       SUNNY     56  56 100 CALM      30.33R
STATESBORO     CLEAR     58  32  37 CALM      30.32R
SAVANNAH       PTCLDY    61  60  97 N7        30.30R


...SOUTHERN NORTH CAROLINA...

CITY           SKY/WX    TMP DP  RH WIND       PRES   REMARKS
CHARLOTTE      PTCLDY    51  46  83 N6        30.38R
MONROE         CLEAR     50  47  89 CALM      30.37R
WADESBORO      SUNNY     47  46  94 CALM      30.37R
ROCKINGHAM     SUNNY     51  48  89 CALM      30.37R
RUTHERFORDTON  CLEAR     49  45  85 CALM      30.40R
ASHEVILLE      CLEAR     45  41  86 CALM      30.42R

$$


USA.gov is the U.S. government's official web portal to all federal, state and local government web resources and services.